Kimball, NE

4:02 AM MDT on September 27, 2016 (GMT -0600)
Kimball Municipal-Arraj

Weather History for KIBM - November, 2011

Change the Weather History Date:

Wednesday, November 9, 2011

  Actual Average (KSNY) Record (KSNY)
Temperature  
Mean Temperature 31 °F 41 °F  
Max Temperature 41 °F 55 °F 72 °F (1978)
Min Temperature 21 °F 27 °F 3 °F (1966)
Degree Days  
Heating Degree Days 34 24  
Month to date heating degree days 202  
Since 1 July heating degree days 805  
Cooling Degree Days 0 0  
Month to date cooling degree days 0  
Year to date cooling degree days 830  
Moisture  
Dew Point 18 °F    
Average Humidity 63    
Maximum Humidity 86    
Minimum Humidity 33    
Precipitation  
Precipitation 0.00 in 0.01 in 0.44 in (1994)
Month to date precipitation 0.16  
Year to date precipitation 17.59  
Sea Level Pressure  
Sea Level Pressure 30.35 in    
Wind  
Wind Speed 11 mph (WNW)    
Max Wind Speed 18 mph    
Max Gust Speed 23 mph    
Visibility 10 miles    
Events      
T = Trace of Precipitation, MM = Missing Value Source: NWS Daily Summary

Daily Weather History Graph

Daily Weather History Graph

Search for Another Location

Airport or City:

Trip Planner

Search our weather history database for the weather conditions in past years. The results will help you decide how hot, cold, wet, or windy it might be!

Date:

Astronomy

Nov. 09, 2011 Rise Set
Actual Time 7:35 AM CST 5:41 PM CST
Civil Twilight 7:06 AM CST 6:10 PM CST
Nautical Twilight 6:33 AM CST 6:43 PM CST
Astronomical Twilight 6:00 AM CST 7:15 PM CST
Moon 4:54 PM CST (11/9) 6:33 AM CST (11/9)
Length of Visible Light 11h 04m
Length of Day
10h 06m
Waxing Gibbous, 99% of the Moon is Illuminated
Nov 9
Waxing Gibbous
Nov 10
Full
Nov 18
Last Quarter
Nov 25
New
Dec 2
First Quarter

Hourly Weather History & Observations

Time (CST) Temp. Windchill Dew Point Humidity Pressure Visibility Wind Dir Wind Speed Gust Speed Precip Events Conditions
12:15 AM 24.8 °F 14.0 °F 17.6 °F 74% 30.29 in 10.0 mi WNW 11.5 mph - N/A   Clear
12:35 AM 24.8 °F 14.0 °F 19.4 °F 80% 30.29 in 10.0 mi WNW 11.5 mph - N/A   Clear
12:55 AM 26.6 °F 16.8 °F 19.4 °F 74% 30.30 in 10.0 mi WNW 10.4 mph - N/A   Clear
1:15 AM 24.8 °F 15.3 °F 17.6 °F 74% 30.30 in 10.0 mi WNW 9.2 mph - N/A   Clear
1:35 AM 24.8 °F 14.0 °F 17.6 °F 74% 30.31 in 10.0 mi WNW 11.5 mph - N/A   Clear
1:55 AM 26.6 °F 16.2 °F 19.4 °F 74% 30.31 in 10.0 mi WNW 11.5 mph - N/A   Clear
2:15 AM 26.6 °F 15.7 °F 19.4 °F 74% 30.31 in 10.0 mi WNW 12.7 mph - N/A   Clear
2:35 AM 26.6 °F 16.2 °F 17.6 °F 69% 30.31 in 10.0 mi WNW 11.5 mph - N/A   Clear
2:55 AM 24.8 °F 13.4 °F 17.6 °F 74% 30.31 in 10.0 mi WNW 12.7 mph - N/A   Clear
3:15 AM 23.0 °F 13.1 °F 17.6 °F 80% 30.31 in 10.0 mi West 9.2 mph - N/A   Clear
3:35 AM 23.0 °F 13.1 °F 17.6 °F 80% 30.32 in 10.0 mi WNW 9.2 mph - N/A   Clear
3:55 AM 23.0 °F 13.1 °F 17.6 °F 80% 30.32 in 10.0 mi WNW 9.2 mph - N/A   Clear
4:15 AM 23.0 °F 12.4 °F 17.6 °F 80% 30.32 in 10.0 mi WNW 10.4 mph - N/A   Clear
4:35 AM 23.0 °F 11.1 °F 17.6 °F 80% 30.32 in 10.0 mi WNW 12.7 mph - N/A   Clear
4:55 AM 23.0 °F 12.4 °F 17.6 °F 80% 30.33 in 10.0 mi WNW 10.4 mph - N/A   Clear
5:15 AM 23.0 °F 12.4 °F 17.6 °F 80% 30.33 in 10.0 mi WNW 10.4 mph - N/A   Clear
5:35 AM 23.0 °F 11.7 °F 17.6 °F 80% 30.34 in 10.0 mi WNW 11.5 mph - N/A   Clear
5:55 AM 23.0 °F 11.7 °F 17.6 °F 80% 30.35 in 10.0 mi WNW 11.5 mph - N/A   Clear
6:15 AM 21.2 °F 10.9 °F 17.6 °F 86% 30.36 in 10.0 mi WNW 9.2 mph - N/A   Clear
6:35 AM 21.2 °F 10.1 °F 17.6 °F 86% 30.36 in 10.0 mi West 10.4 mph - N/A   Clear
6:55 AM 21.2 °F 11.7 °F 17.6 °F 86% 30.35 in 10.0 mi West 8.1 mph - N/A   Clear
7:15 AM 21.2 °F 10.1 °F 17.6 °F 86% 30.36 in 10.0 mi West 10.4 mph - N/A   Clear
7:35 AM 23.0 °F 12.4 °F 17.6 °F 80% 30.36 in 10.0 mi WNW 10.4 mph - N/A   Clear
7:55 AM 23.0 °F 12.4 °F 17.6 °F 80% 30.37 in 10.0 mi West 10.4 mph - N/A   Clear
8:15 AM 24.8 °F 14.0 °F 17.6 °F 74% 30.38 in 10.0 mi West 11.5 mph - N/A   Clear
8:35 AM 26.6 °F 15.2 °F 19.4 °F 74% 30.39 in 10.0 mi WNW 13.8 mph - N/A   Clear
8:55 AM 28.4 °F 17.5 °F 19.4 °F 69% 30.40 in 10.0 mi WNW 13.8 mph - N/A   Clear
9:15 AM 28.4 °F 17.5 °F 19.4 °F 69% 30.40 in 10.0 mi WNW 13.8 mph 17.3 mph N/A   Clear
9:35 AM 30.2 °F 19.8 °F 19.4 °F 64% 30.41 in 10.0 mi WNW 13.8 mph - N/A   Clear
9:55 AM 32.0 °F 23.0 °F 21.2 °F 64% 30.41 in 10.0 mi West 11.5 mph - N/A   Clear
10:35 AM 33.8 °F 24.3 °F 21.2 °F 60% 30.42 in 10.0 mi WNW 13.8 mph - N/A   Clear
10:55 AM 35.6 °F 26.6 °F 21.2 °F 56% 30.42 in 10.0 mi WNW 13.8 mph - N/A   Clear
11:15 AM 35.6 °F 25.2 °F 21.2 °F 56% 30.42 in 10.0 mi WNW 18.4 mph - N/A   Clear
11:35 AM 37.4 °F 28.9 °F 21.2 °F 52% 30.42 in 10.0 mi WNW 13.8 mph 17.3 mph N/A   Clear
12:15 PM 37.4 °F 28.9 °F 17.6 °F 45% 30.41 in 10.0 mi NW 13.8 mph - N/A   Clear
12:35 PM 39.2 °F 31.6 °F 17.6 °F 42% 30.40 in 10.0 mi NW 12.7 mph - N/A   Clear
12:55 PM 39.2 °F 31.6 °F 14.0 °F 36% 30.39 in 10.0 mi NW 12.7 mph 18.4 mph N/A   Clear
1:15 PM 39.2 °F 30.5 °F 14.0 °F 36% 30.39 in 10.0 mi NNW 16.1 mph 21.9 mph N/A   Clear
1:35 PM 39.2 °F 30.2 °F 14.0 °F 36% 30.38 in 10.0 mi NNW 17.3 mph 23.0 mph N/A   Clear
1:55 PM 41.0 °F 32.8 °F 15.8 °F 36% 30.38 in 10.0 mi NNW 16.1 mph 19.6 mph N/A   Clear
2:15 PM 41.0 °F 32.5 °F 15.8 °F 36% 30.38 in 10.0 mi NNW 17.3 mph 21.9 mph N/A   Clear
2:35 PM 41.0 °F 32.8 °F 14.0 °F 33% 30.37 in 10.0 mi NNW 16.1 mph 20.7 mph N/A   Clear
2:55 PM 41.0 °F 32.8 °F 15.8 °F 36% 30.36 in 10.0 mi North 16.1 mph 23.0 mph N/A   Clear
3:15 PM 41.0 °F 33.5 °F 14.0 °F 33% 30.36 in 10.0 mi NNW 13.8 mph 18.4 mph N/A   Clear
3:35 PM 41.0 °F 34.3 °F 14.0 °F 33% 30.36 in 10.0 mi NNW 11.5 mph - N/A   Clear
3:55 PM 41.0 °F 35.8 °F 14.0 °F 33% 30.36 in 10.0 mi NNW 8.1 mph - N/A   Clear
4:15 PM 39.2 °F 32.0 °F 14.0 °F 36% 30.35 in 10.0 mi NNW 11.5 mph - N/A   Clear
4:35 PM 39.2 °F 33.0 °F 14.0 °F 36% 30.35 in 10.0 mi NNW 9.2 mph - N/A   Clear
4:55 PM 37.4 °F 33.8 °F 17.6 °F 45% 30.35 in 10.0 mi NW 4.6 mph - N/A   Clear
5:15 PM 35.6 °F 31.7 °F 19.4 °F 52% 30.35 in 10.0 mi WNW 4.6 mph - N/A   Clear
5:35 PM 33.8 °F 30.8 °F 19.4 °F 56% 30.35 in 10.0 mi NW 3.5 mph - N/A   Clear
5:55 PM 33.8 °F 30.8 °F 19.4 °F 56% 30.34 in 10.0 mi NW 3.5 mph - N/A   Clear
6:15 PM 32.0 °F - 21.2 °F 64% 30.34 in 10.0 mi Calm Calm - N/A   Clear
6:35 PM 32.0 °F - 19.4 °F 60% 30.35 in 10.0 mi Calm Calm - N/A   Clear
6:55 PM 30.2 °F - 19.4 °F 64% 30.35 in 10.0 mi Calm Calm - N/A   Clear
7:15 PM 30.2 °F 25.4 °F 21.2 °F 69% 30.35 in 10.0 mi NNW 4.6 mph - N/A   Clear
7:35 PM 30.2 °F 26.7 °F 19.4 °F 64% 30.35 in 10.0 mi NW 3.5 mph - N/A   Clear
7:55 PM 26.6 °F - 19.4 °F 74% 30.34 in 10.0 mi Calm Calm - N/A   Clear
8:15 PM 26.6 °F 21.2 °F 19.4 °F 74% 30.34 in 10.0 mi SW 4.6 mph - N/A   Clear
8:35 PM 23.0 °F 15.8 °F 19.4 °F 86% 30.34 in 10.0 mi WSW 5.8 mph - N/A   Clear
8:55 PM 23.0 °F 18.4 °F 19.4 °F 86% 30.33 in 10.0 mi WSW 3.5 mph - N/A   Clear
9:15 PM 21.2 °F 13.6 °F 17.6 °F 86% 30.33 in 10.0 mi West 5.8 mph - N/A   Clear
9:35 PM 23.0 °F 12.4 °F 19.4 °F 86% 30.35 in 10.0 mi WSW 10.4 mph - N/A   Clear
9:55 PM 23.0 °F 12.4 °F 17.6 °F 80% 30.35 in 10.0 mi WSW 10.4 mph - N/A   Clear
10:15 PM 23.0 °F 12.4 °F 17.6 °F 80% 30.35 in 10.0 mi WSW 10.4 mph - N/A   Clear
10:35 PM 23.0 °F 13.9 °F 17.6 °F 80% 30.35 in 10.0 mi WSW 8.1 mph - N/A   Clear
10:55 PM 23.0 °F 12.4 °F 17.6 °F 80% 30.34 in 10.0 mi WSW 10.4 mph - N/A   Clear
11:15 PM 23.0 °F 12.4 °F 17.6 °F 80% 30.33 in 10.0 mi WSW 10.4 mph - N/A   Clear
11:35 PM 23.0 °F 12.4 °F 17.6 °F 80% 30.33 in 10.0 mi West 10.4 mph - N/A   Clear
11:55 PM 21.2 °F 11.7 °F 15.8 °F 80% 30.33 in 10.0 mi West 8.1 mph - N/A   Clear